[Iaude] MPEC F63: 2022 FM1 [a=1.70,e=0.43,i=2.3,H=28.6]

mpec at marsden.cfa.harvard.edu mpec at marsden.cfa.harvard.edu
Fri Mar 25 21:06:13 EDT 2022


M.P.E.C. 2022-F63                                Issued 2022 March 26, 01:04 UT

     The Minor Planet Electronic Circulars contain information on unusual
         minor planets and routine data on comets.  They are published
    on behalf of Division F of the International Astronomical Union by the
          Minor Planet Center, Smithsonian Astrophysical Observatory,
                          Cambridge, MA 02138, U.S.A.

             Prepared using the Tamkin Foundation Computer Network

                              MPC at CFA.HARVARD.EDU
            URL https://www.minorplanetcenter.net/    ISSN 1523-6714

                                    2022 FM1                                    


Observations:
     K22F01M*HC2022 03 24.27503012 18 32.81 -06 29 26.7                VEF063G96
     K22F01M HC2022 03 24.28615912 19 01.95 -06 31 13.1                VEF063G96
     K22F01M HC2022 03 24.29174512 19 16.55 -06 32 06.0          19.84GVEF063G96
     K22F01M KC2022 03 24.37827512 23 08.01 -06 45 53.6          19.40GVEF063I52
     K22F01M KC2022 03 24.37880612 23 09.40 -06 45 58.5          19.60GVEF063I52
     K22F01M KC2022 03 24.37933512 23 10.85 -06 46 03.3          20.31GVEF063I52
     K22F01M 1C2022 03 25.02949 13 00 13.26 -08 44 29.2          19.7 VXEF063033
     K22F01M 1C2022 03 25.03001 13 00 15.16 -08 44 35.3          19.9 VXEF063033
     K22F01M 1C2022 03 25.03052 13 00 17.08 -08 44 41.2          20.3 VXEF063033
     K22F01M KC2022 03 25.33087313 21 21.52 -09 41 36.6          19.82GVEF063I52
     K22F01M KC2022 03 25.33179313 21 25.35 -09 41 47.7          19.55GVEF063I52
     K22F01M KC2022 03 25.33225413 21 27.26 -09 41 53.3          19.43GVEF063I52
     K22F01M  C2022 03 25.45026913 29 51.06 -10 05 38.9          19.1 GVEF063H01
     K22F01M  C2022 03 25.45486713 30 11.42 -10 06 32.6          19.9 GVEF063H01
     K22F01M  C2022 03 25.46253113 30 45.49 -10 08 02.6          19.3 GVEF063H01
     K22F01M  C2022 03 25.47094513 31 23.06 -10 09 41.1          19.3 GVEF063H01
     K22F01M 1C2022 03 25.99218814 16 32.53 -11 55 09.8                VEF063246
     K22F01M 1C2022 03 25.99241414 16 33.72 -11 55 13.7                VEF063246

Observer details:
033 Karl Schwarzschild Observatory, Tautenburg.  Observers S. Melnikov, C.
    Hoegner, U. Laux, F. Ludwig, B. Stecklum.  Measurer B. Stecklum.  1.34-m
    f/3 Schmidt + CCD.
246 Klet Observatory-KLENOT.  Observers M. Tichy, J. Ticha, M. Honkova.
    Measurer M. Tichy.  1.06-m f/2.7 reflector + 2048x2048 CCD.
G96 Mt. Lemmon Survey.  Observers A. Serrano, G. J. Leonard.  Measurers E. J.
    Christensen, G. A. Farneth, J. B. Fazekas, D. C. Fuls, A. R. Gibbs, A. D.
    Grauer, H. Groeller, J. K. Hogan, R. A. Kowalski, S. M. Larson, G. J.
    Leonard, D. Rankin, R. L. Seaman, A. Serrano, F. C. Shelly, K. W.
    Wierzchos.  1.5-m reflector + 10K CCD.
H01 Magdalena Ridge Observatory, Socorro.  Observers W. H. Ryan, E. V. Ryan.
    Measurer W. H. Ryan.  2.4-m f/8.9 Ritchey-Chretien + CCD.
I52 Steward Observatory, Mt. Lemmon Station.  Observer K. W. Wierzchos.
    Measurers E. J. Christensen, G. A. Farneth, J. B. Fazekas, D. C. Fuls, A.
    R. Gibbs, A. D. Grauer, H. Groeller, J. K. Hogan, R. A. Kowalski, S. M.
    Larson, G. J. Leonard, D. Rankin, R. L. Seaman, A. Serrano, F. C. Shelly,
    K. W. Wierzchos.

Orbital elements:
2022 FM1                                                 Earth MOID = 0.0027 AU
Epoch 2022 Jan. 21.0 TT = JDT 2459600.5                 Veres                   
M 321.70119              (2000.0)            P               Q                  
n   0.44435735     Peri.   27.05173     -0.84919221     +0.52807343             
a   1.7007787      Node   184.82759     -0.49136729     -0.79243824             
e   0.4268835      Incl.    2.26185     -0.19347033     -0.30525412             
P   2.22           H   28.63          G   0.15           U   7                  
Residuals in seconds of arc
220324 G96  0.2+  0.3+    220325 033  0.4+  0.2+    220325 H01  0.2+  0.2-
220324 G96  1.1+  0.2-    220325 033  0.2-  0.1+    220325 H01  0.1+  0.1+
220324 G96  0.5+  0.1+    220325 033  0.1+  0.0     220325 H01  0.1+  0.1-
220324 I52  0.4+  0.1-    220325 I52  0.2+  0.0     220325 H01  0.1-  0.2-
220324 I52  0.5-  0.1+    220325 I52  0.1-  0.1+    220325 246  0.6-  2.0+
220324 I52  0.5-  0.3+    220325 I52  0.3-  0.1+    220325 246  0.8-  0.6+

Ephemeris:
2022 FM1                 a,e,i = 1.70, 0.43, 2                   q = 0.9747
Date    TT    R. A. (2000) Decl.     Delta      r    Elong.  Phase     V
2022 02 24    09 54 10.2 +03 08 19   0.1442  1.1316   169.5     9.2    25.3
...
2022 03 11    10 02 56.6 +02 00 08   0.07064 1.0598   159.8    18.9    24.0
...
2022 03 19    10 33 06.7 -00 01 09   0.03530 1.0286   160.0    19.3    22.4
...
2022 03 25    12 58 20.5 -08 28 36   0.01252 1.0093   167.2    12.7    19.9
2022 03 26    14 16 59.0 -11 44 31   0.01055 1.0064   149.0    30.7    20.1
2022 03 27    15 56 18.2 -13 51 51   0.01021 1.0037   125.9    53.7    20.6
...
2022 04 02    20 10 00.1 -08 12 59   0.02925 0.9895    69.5   108.9    25.0
...
2022 04 10    20 55 18.8 -05 49 09   0.06274 0.9775    65.7   110.9    26.8
...
2022 04 25    21 21 35.1 -04 21 03   0.1251  0.9774    73.4    99.6    27.7

M. P. C. Staff               (C) Copyright 2022 MPC           M.P.E.C. 2022-F63




More information about the Iaude mailing list